Race Results for
Patterson Pass Road Race
Tracy, CA
(Event Information)
View By:
Road Race on 08/07/2011

Note: Ranking points are NOT upgrade points. An explanation of ranking points can be found here.


Men - Cat1/2/3 - Master - 35-99

 Place Points NameCity, StateTime USAC #BibTeam
1165.69Andres Gil   Stockton, CA00:00.0 171882  477 Michael David Winery Cycling T
2175.31Matthew Carinio   San Luis Obispo, CA00:00.0 6109  483 ArtsCyclery.com/Wild Horse Win
3184.93Jonathan Eropkin   Fresno, CA00:00.0 197844  474 SAFEWAY/PureRed Creative/Bicyc
4194.55Paul Dyrwal   San Rafael, CA00:00.0 254245  487 IronDataThirstyBearCycling.com
5204.17Nathan Parks   Livermore, CA00:00.0 51773  496 Morgan Stanley Smith Barney/Sp
6213.79Christopher Phipps   San Francisco, CA00:00.0 233623  497 IronDataThirstyBearCycling.com
7223.41Craig Nunes   San Luis Obispo, CA00:00.0 178453  495 ArtsCyclery.com/Wild Horse Win
8233.03Murray Swanson (1 - Cat2)   Woodside, CA00:00.0 206144  499 Peninsula Velo/Pomodoro
9242.65Gregory Gambetta   Sacramento, CA00:00.0 212916  488 Mercedes Benz/Folsom Bike
10252.27Joshua Dapice   Berkeley, CA00:00.0 141844  486 Audi
11261.89Brian Choi   Folsom, CA00:00.0 52849  479 Stuzio Cycling Club
12271.51Nils Johnson (2 - Cat2)   Davis, CA00:00.0 196328  490 Mercedes Benz/Folsom Bike
13281.13Jason Grefrath   Sacramento, CA00:00.0 281883  489 Taleo Racing
14290.75Tom Roberts (3 - Cat2)   Morgan Hill, CA00:00.0 245349  498 IronDataThirstyBearCycling.com
15300.37David Levine   Alamo, CA00:00.0 145573  481 Taleo Racing
16309.99Greg Davis   Los Altos, CA00:00.0 119459  473 Los Gatos
17319.61Leslie Oglesby   Salinas, CA00:00.0 53661  480 Joselyn's Bicycles
18329.23Bill Laddish   Castro Valley, CA00:00.0 20105  491 NA
19338.85David Nasca   Roseville, CA00:00.0 41192  493 Folsom Bike
20348.47Pablo Espinosa   Mountain View, CA00:00.0 50576  475 
DNPTroy Newton   Santa Rosa, CA00:00.0 190533  494 R4R- Make A Wish
DNPBrenon Daly   Oakland, CA00:00.0 205384  485 IronDataThirstyBearCycling.com
DNPGreg McQuaid   San Francisco, CA00:00.0 249424  492 IronDataThirstyBearCycling.com
DNPJeff Albert   Reno, NV00:00.0 235063  482 Argon 18
DNPPatrick Coulson (Cat2)   La Honda, CA00:00.0 89303  484 
DNPShawn Daly   Tucson, AZ00:00.0 205616  476 Southwest Hand Cycling Team
DNPScott Fonseca   Fair Oaks, CA00:00.0 204715  478 Zenn Racing Team

Men - Cat1/2/3 - Master - 45-99

 Place Points NameCity, StateTime USAC #BibTeam
1199.89Craig Roemer   Petaluma, CA00:00.0 80925  942 Team Specialized Racing Master
2205.95Kevin Metcalfe   Pleasant Hill, CA00:00.0 47519  940 Team Specialized Racing Master
3212.01Chris Wire   Saratoga, CA00:00.0 152176  949 SJBC
4218.07Robert Anderson   Mill Valley, CA00:00.0 1688  921 Team Specialized Racing Master
5224.13David Passmore   San Carlos, CA00:00.0 27378  941 Berkeley Bicycle Club (BBC)
6230.19Tom Lyons   Fairfax, CA00:00.0 281054  936 IronDataThirstyBearCycling.com
7236.25Stephen McCaw   Sacramento, CA00:00.0 62322  939 Rocknasium
8242.31Arthur Jones   San Francisco, CA00:00.0 272999  932 IronDataThirstyBearCycling.com
9248.37David Jones   Danville, CA00:00.0 277251  933 Wells Fargo Racing Team
10254.43Mark Caldwell   Moraga, CA00:00.0 40039  924 morgan stanley smith barney/sp
11260.49Jan Elsbach   Davis, CA00:00.0 200149  926 VOS racing
12266.55Michael Vetterli   Alamo, CA00:00.0 214565  913 Olympic Club
13272.61Rick Martyn   Pleasant Hill, CA00:00.0 204699  915 
14278.67Clark Foy   Los Gatos, CA00:00.0 255066  928 SJBC
15284.73Hans Gouwens   Corte Madera, CA00:00.0 196222  929 IronDataThirstyBearCycling.com
16290.79Holger Steinbach   Los Gatos, CA00:00.0 304900  916 Webcor/Alto Velo
17296.85Daryl Spano   Fremont, CA00:00.0 146243  945 SJBC
18302.91Stanley Terusaki   Livermore, CA00:00.0 35241  948 Morgan Stanley Smith Barney/Sp
19308.97Maurice Klein   Oakland, CA00:00.0 254638  934 IronDataThirstyBearCycling.com
20315.03Rodney Spradlin   El Dorado Hills, CA00:00.0 122266  946 Rocknasium
21321.09Derek McBrearty (1 - Cat3)   Oakland, CA00:00.0 208627  938 IronDataThirstyBearCycling.com
22327.15Erle Martin   Saint Helena, CA00:00.0 210062  937 Cal Giant
23333.21marc hamlin (1 - Cat2)   Hathaway Pines, CA00:00.0 275127  920 Team Bicycles Plus/Sierra Neva
24339.27Bill Brier   Fremont, CA00:00.0 274225  923 Team Fremont/FFBC p/b Chipotle
25345.33Daryoush Paknad   Palo Alto, CA00:00.0 60528  914 Form Fitness
26351.39Jonathan Sek   San Jose, CA00:00.0 45922  944 SJBC
27357.45John Hancock   Sacramento, CA00:00.0 195844  930 Team Bicycles Plus/Sierra Neva
28363.51Mike Nissen   Livermore, CA00:00.0 296024  918 Taleo Racing
29369.57Eric Brown (2 - Cat3)   Sacramento, CA00:00.0 241658  919 Team Bicycles Plus/Sierra Neva
DNSPeter Taylor   Truckee, CA00:00.0 281821  947 Truckee Bicycle Team
DNSDonald Langley   Morgan Hill, CA00:00.0 20327  935 Morgan Stanley Smith Barney/Sp
DNPBoris Rozenberg   Daly City, CA00:00.0 190311  943 
DNPScott Herring   Sausalito, CA00:00.0 236346  931 XxX Racing-AthletiCo
DNPJohn Emery (Cat2)   Petaluma00:00.0 106844  927 Morgan Stanley Specialized
DNPMarkham Connolly   Berkeley, CA00:00.0 208359  925 Touchstone Climbing
DNPKurt Bickel   Upland, CA00:00.0 219611  922 Echelon Gran Fondo
DNPJames Blankenship   Rescue, CA00:00.0 53651  917 Body Concepts

Men - Cat 5

 Place Points NameCity, StateTime USAC #BibTeam
1372.61Matt Rodrigues   Davis, CA00:00.0 321302  993 Davis Bike Club Race Team
2Brian SZYKOWNY   00:00.0  968 
3390.71David Christenson   Sparks, NV00:00.0 264429  980 
4399.76Brooks Sizemore   San Francisco, CA00:00.0 335986  995 Peninsula Velo/Pomodoro
5408.81Chris Evans   Redwood City, CA00:00.0 321408  983 Webcor/Alto Velo
6417.86James Barkow   Mill Valley, CA00:00.0 321904  976 
7426.91Steven Hembree   Atascadero, CA00:00.0 358177  967 
8435.96Trevor Gomes   Lodi, CA00:00.0 321964  974 Michael David Winery Cycling T
9445.01Michael Larson   Truckee, CA00:00.0 234067  989 
10454.06Daniel Green   Oroville, CA00:00.0 356192  985 
11463.11Josef Carlson   Eureka, CA00:00.0 348872  973 Adventures Edge
12472.16Don Chapin   Salinas, CA00:00.0 348760  979 Don Chapin Monterey Bay Racing
13481.21David Baar   Santa Monica, CA00:00.0 346596  975 Team Axiom
14490.26Adam Stansbury   Folsom, CA00:00.0 347404  996 Folsom Bike
15499.31Lance McPeak   Walla Walla, WA00:00.0 335916  992 Victory Velo
16Liuke WENTLAND   00:00.0  970 
17517.41andrew warner   Oakland, CA00:00.0 327942  999 
18Lucas BROADHURST   00:00.0  977 
19535.51Nathan CAUFFMAN   Milpitas, CA00:00.0 366189  978 
20544.56Geoffrey COLBURN   San Francisco, CA00:00.0 354508  969 
21553.61Ian VANEK   San Jose, CA00:00.0 319146  998 
22Morgan COLE   00:00.0  972 
23571.71Zachary Hilton   Morgan Hill, CA00:00.0 326874  986 Taleo Racing
24Jon KOCH   00:00.0  988 
DNSAndy Schrock   Petaluma, CA00:00.0 357051  994 
DNSLouis Costa   Lodi, CA00:00.0 331538  982 Michael David Winery
DNPGarrett Marking   Paradise, CA00:00.0 345846  991 
DNPChristian Templeton   Mountain View, CA00:00.0 333418  997 SJBC
DNPBenjamin Christopher   San Francisco, CA00:00.0 335102  981 Team City
DNPRyan FRANKLIN   00:00.0  984 
DNPKyle IUFER   Sunnyvale, CA00:00.0 288297  987 Webcor/Alto Velo

Men - Cat 5 - Master - 35-99

 Place Points NameCity, StateTime USAC #BibTeam
1344.50Stefan Giachino   Fair Oaks, CA00:00.0 242481  790 
2358.14B Thomas Rice   Redwood City, CA00:00.0 260611  781 Corfetecus Racing
3371.78Jordan Gudebski   Oakland, CA00:00.0 356928  791 
4385.42Christopher Metz   Danville, CA00:00.0 333224  795 
5399.06Roy Hoglund   Merced, CA00:00.0 298972  792 Webcor/Alto Velo
6412.70Andy Schrock   Petaluma, CA00:00.0 357051  782 
7426.34Andrew Crews   Sunnyvale, CA00:00.0 217112  787 
8439.98Bob Brandt   San Jose, CA00:00.0 310942  786 SJBC
9453.62Angus Murray   Walnut Creek, CA00:00.0 155123  799 
10467.26John MARENGO   Fair Oaks, CA00:00.0 371699  780 
11Selim ELHADJ   00:00.0  788 
12494.54RETO MUELLER   San Francisco, CA00:00.0 331974  798 peninsula velo pomodoro
13508.18Kevin Mann   Davis, CA00:00.0 334024  794 Davis Bike Club
14521.82Randy Millard   Auburn, CA00:00.0 303844  797 Victory Velo
15535.46Patrick Kennedy   Hayward, CA00:00.0 266407  793 Taleo Racing
16549.10John Metzger   Shingle Springs, CA00:00.0 166381  796 Folsom Bike
17562.74Jeramie Tremain   Wallace, CA00:00.0 350328  784 Michael David Winery Cycling T
18576.38Benson Chan   Orinda, CA00:00.0 334004  783 Wells Fargo Racing Team
19Marty BEENE   00:00.0  785 
DNPMarc Garibaldi   Hillsborough, CA00:00.0 339286  789 Peninsula Velo/ Pomodoro

Men - Cat 4

 Place Points NameCity, StateTime USAC #BibTeam
1353.19Jereme Altenberg   Davis, CA00:00.0 309379  273 Davis Bike Club Race Team
2363.95Alexander Newcomb   Sacramento, CA00:00.0 353226  286 
3374.71Mat Gordon   San Francisco, CA00:00.0 191313  279 Fusion Sport USA
4385.47Aaron Rindy   Reno, NV00:00.0 303731  291 
5396.23Burl Pershall   San Anselmo, CA00:00.0 276353  288 Village Peddler
6406.99Adam OCamb   Orinda Ca00:00.0 297136  271 Tieni Duro Junior Cycling Team
7417.75Jeff Stein   Weimar, CA00:00.0 295435  268 Victory Velo
8428.51Nathan Abel   Capron Il00:00.0 329424  272 Adventures Edge
9439.27David Wickeraad   Lincoln, CA00:00.0 257005  298 Stanford University
10450.03Massimo Palumbo   Greenbrae, CA00:00.0 220827  287 
11460.79Casey Fallon   Sacramento, CA00:00.0 331532  277 Rio Strada Racing
12471.55Joseph Sullivan   San Jose, CA00:00.0 336936  294 SJBC
13482.31Isaac Sparling   San Francisco, CA00:00.0 331080  269 Dolce Vita Cycling
14493.07Tommy Lucas   Santa Rosa, CA00:00.0 285713  265 All Sport-Team Swift
15503.83David Siegel   Berkeley, CA00:00.0 287699  264 University of California-Berke
16514.59Jake Devine   Oakland, CA00:00.0 322924  276 Rhythm Racing
17525.35Patrick Callan   Fair Oaks, CA00:00.0 323184  266 Bicycles Plus
18536.11jason milliron   Redwood City, CA00:00.0 287507  283 Webcor/Alto Velo
19546.87Triston Mosbacher   Redding, CA00:00.0 310849  285 
20557.63Andrew Ralston   Grand Junction Co00:00.0 339032  263 Oberlin College
21568.39Barrett Ausman   San Jose, CA00:00.0 186327  274 Webcor/Alto Velo
22579.15Alexander Yermolovich   Santa Clara, CA00:00.0 220894  299 
23589.91Frank Ravizza   Brentwood, CA00:00.0 309418  289 VSRT/Livermore Cyclery
DNSDaniel Lebson   Folsom, CA00:00.0 295237  281 Rio Strada Racing
DNSDan Wait   San Luis Obispo, CA00:00.0 105160  296 SLO Nexus-Gym One
DNPHeath West   Houston, TX00:00.0 310101  297 
DNPPatxi Uriz   Fremont, CA00:00.0 331152  295 Tri Valley Velo
DNPJeremy Stanley   Cazadero, CA00:00.0 278623  293 NA
DNPWilliam Rose   San Francisco, CA00:00.0 237997  292 Chica Sexy
DNPRon Rawson   Orinda, CA00:00.0 306491  290 Wells Fargo Racing Team
DNPCurt Mills   Gold River, CA00:00.0 299412  284 Team Bicycles Plus/Sierra Neva
DNPJohn Luk   Millbrae, CA00:00.0 305015  282 Peninsula Velo/Pomodoro
DNPStanley Goto   Petaluma, CA00:00.0 254829  280 All Sport Team Swift
DNPUri Friedman   San Francisco, CA00:00.0 202518  278 
DNPEric Chi   Cupertino, CA00:00.0 223566  275 Webcor/Alto Velo
DNPTaylor Cody   Berkeley, CA00:00.0 313686  270 Berekeley Bike Club
DNPjuan rosas   San Jose, CA00:00.0 332154  262 Bike Station Aptos

Men - Cat 4 - Master - 35-99

 Place Points NameCity, StateTime USAC #BibTeam
1328.95Jay Newton   Roseville, CA00:00.0 271095  553 Victory Velo
2339.83Lance Loveday   Auburn, CA00:00.0 305459  550 Victory Velo
3350.71SAMMY TRUJILLO   Rancho Cordova, CA00:00.0 286935  559 Rio Strada Racing
4361.59Hussein Saffouri   Piedmont, CA00:00.0 41848  555 Berkeley Bike Club (BBC)
5372.47Sascha Messner   Fremont, CA00:00.0 280562  551 Taleo Racing
6383.35Michael Simos   Redwood City, CA00:00.0 271296  556 
7394.23Alex Peterson   Oakland, CA00:00.0 78081  554 Sofa Kings
8405.11Rob Leever   Citrus Heights, CA00:00.0 267651  547 Rio Strada Racing
9415.99James Grant   San Anselmo, CA00:00.0 62772  542 IronDataThirstyBearCycling.com
10426.87Sean Campbell   Oakland, CA00:00.0 198622  531 R4R-Make A Wish
11437.75Chris Hernikl   Pleasant Hill, CA00:00.0 304027  544 Taleo Racing
12448.63Jeremy Barnes   Carmichael, CA00:00.0 332918  534 Team Bicycles Plus/Sierra Neva
13459.51Chris Gros-Balthazard   Mill Valley, CA00:00.0 185560  543 NA
14470.39Jeff Tanforan   Orangevale, CA00:00.0 294020  558 Team Bicycles Plus/Sierra Neva
15481.27Curtis Hoyt   Kelsey, CA00:00.0 291773  546 bicycle planet
16492.15Doug Cook   Exeter, CA00:00.0 7642  536 
17503.03Ryan Gibson   Mountain View, CA00:00.0 295319  541 Webcor/Alto Velo
18513.91Kevin Denison   El Dorado Hills, CA00:00.0 303642  538 Team Mad Cat
19524.79dave dunn   Walnut Creek, CA00:00.0 303907  540 Wells Fargo Racing Team
20535.67Chad Richards   Antelope, CA00:00.0 305850  533 Team Bicycles Plus
21546.55Dan Switlick   Granite Bay, CA00:00.0 271280  557 Folsom Bike
22557.43Bob Loux   Modesto, CA00:00.0 287104  532 Fun Sport Bikes Cycling Team
23568.31Giles Douglas   Mountain View, CA00:00.0 302576  539 Webcor/Alto Velo
24579.19Michael Coppolino   San Francisco, CA00:00.0 237772  537 Unattached
25590.07Eric Hess   Windsor, CA00:00.0 16032  545 
DNSKevin Miller   Granite Bay, CA00:00.0 307115  552 Victory Velo
DNSSean Lollar   Sutter Creek, CA00:00.0 21485  549 
DNSLudovic Legrand   San Carlos, CA00:00.0 330292  548 Peninsula Velo/Pomodoro
DNSLanier Benkard   Woodside, CA00:00.0 233122  535 

Men - Cat 4 - Master - 45-99

 Place Points NameCity, StateTime USAC #BibTeam
1313.15Alan Roberts   San Rafael, CA00:00.0 282684  641 IronDataThirstyBearCycling.com
2320.77Greg Klunder   Oakland, CA00:00.0 343022  629 
3328.39Marc DeLeon   Woodland Hills, CA00:00.0 197848  610 Herbalife LaGrange
4336.01Calvin Darling   Mountain View, CA00:00.0 272309  620 Monta Vista Velo
5343.63Mark Foster   Portola Valley, CA00:00.0 319704  623 Core Techs Cycling Team
6351.25Jeffrey Botelho   Sanramon, CA00:00.0 303912  617 Taleo Racing
7358.87Richard Gelsi-Medeot   Novato, CA00:00.0 225191  624 California Giant Cycling
8366.49Mark King   Livermore, CA00:00.0 136967  628 Christian Cycling-Hammer Nutri
9374.11Patrick Hampton   Cambria, CA00:00.0 218958  626 ArtsCyclery.com / Wild Horse W
10381.73Ron Nelson   Martinez, CA00:00.0 257207  636 NA
11389.35Bob Ehardt   Orangevale, CA00:00.0 286992  622 Bicycle Planet
12396.97Gilbert Tarin   Knightsen, CA00:00.0 252241  645 Taleo Racing
13404.59Russell McCrary   San Ramon, CA00:00.0 253276  633 California Giant Cycling
14412.21Michael Cochran   Sacramento, CA00:00.0 297795  618 Bullseye/East Sac Bike
15419.83Daryl Nelson   San Rafael, CA00:00.0 131311  613 Taleo Racing
16427.45Devinderjit Singh   Yuba City, CA00:00.0 296818  642 Body Concepts
17435.07Paul Page-Hanson   San Francisco, CA00:00.0 257819  614 Team Roaring Mouse
18442.69John Kretschmann   Folsom, CA00:00.0 54278  612 Body Concepts
19450.31Craig Larsen   Santa Clara, CA00:00.0 65413  630 Monta Vista Velo
20457.93Ken Shiokari   Pacifica, CA00:00.0 228280  611 
21465.55James Winne   Roseville, CA00:00.0 130974  649 Woodcreek High School Cycling
22473.17Gordon Lau   Livermore, CA00:00.0 309989  631 VSRT / Livermore Cyclery
23480.79Jory Stein   Foster City, CA00:00.0 331516  644 Peninsula Velo/Pomodoro
24488.41Huy Nguyen   Tracy, CA00:00.0 26028  637 Tracy Riders
25496.03Will Parks   Oakland00:00.0 274034  639 none
26503.65Eric Murray   Los Gatos, CA00:00.0 252246  635 Webcor/Alto Velo
27511.27Bill Vaughan   Auburn, CA00:00.0 283140  647 Victory Velo
28518.89Tim GERAGHTY   Los Gatos, CA00:00.0 322748  625 
29526.51Matt Conidaris   Gold River, CA00:00.0 195944  619 Body Concepts
30534.13PETER BADERTSCHER   Cortemadera, CA00:00.0 293436  616 irondatathirstybear.com
31541.75Craig Dinger   Davis, CA00:00.0 305628  621 Davis Bike Club Race Team
32549.37Sid Noyes   Eureka, CA00:00.0 54640  638 Revolution Bicycles
DNSRandy Volkmar   S Lake Tahoe, CA00:00.0 36779  648 Body Concepts
DNSHarold Reimer   Santa Clara, CA00:00.0 304549  640 Webcor/Alto Velo
DNSPatrick Logan   San Ramon, CA00:00.0 242583  632 Third Pillar
DNSJames Morando   Tiburon, CA00:00.0 306317  634 Unaffiliated
DNSFelix Jaramillo   Placerville, CA00:00.0 310941  627 Body Concepts
DNPOsvaldo Tomatis   Elk Grove, CA00:00.0 220373  646 sport and spine pt
DNPJack Arney   Lincoln, CA00:00.0 301427  615 Folsom Bike
DNPChuck Spiteri   San Mateo, CA00:00.0 292488  643 Peninsula Velo/Pomodoro

Men - Cat 3

 Place Points NameCity, StateTime USAC #BibTeam
1225.29Jeromy Cottell   Redwood City, CA00:00.0 273912  173 Peninsula Velo / Pomodoro
2234.04Colin Daw   Saratoga, CA00:00.0 257770  175 Wheel Away Cycle Center
3242.79Alistair Eeckman   Berkeley, CA00:00.0 281189  176 Above Category Racing
4251.54Dan Tedford   Mountain View, CA00:00.0 196695  168 Squadra Ovest Cycling
5260.29David Mesa   Crockett, CA00:00.0 243257  191 Chica Sexy Beauty Salon
6269.04Bryan Hoadley   Danville, CA00:00.0 51644  163 R4R-Make A Wish
7277.79Erik Nelson   Roseville, CA00:00.0 302958  192 Sharp Syndicate
8286.54kevin leong   Oakland, CA00:00.0 303230  183 Rhythm Racing
9295.29Roger Martin   Danville, CA00:00.0 276924  186 Wells Fargo Racing Team
10304.04Henry Scholz   San Francisco, CA00:00.0 267795  157 Team Mike's Bikes
11312.79ryan Spaulding   Petaluma, CA00:00.0 310838  197 Adventures Edge
12321.54Daniel Velasco   San Francisco, CA00:00.0 332966  158 Mikes Bikes
13330.29Travis Lukens   Sonoma, CA00:00.0 204220  185 
14339.04Menko Johnson   Redwood City, CA00:00.0 18004  182 Peninsula Velo/Pomodoro
15347.79David Rossow   Los Gatos, CA00:00.0 232665  195 Webcor/Alto Velo
16356.54Cameron Birky   Pleasant Hill, CA00:00.0 285950  171 Wells Fargo Racing Team
17365.29Philip Hynes   Mill Valley, CA00:00.0 169857  166 IronDataThirstyBearCycling.com
18374.04Thomas Gross   San Francisco, CA00:00.0 263396  160 Dolce Vita Cycling
19382.79Nick Pelly   Palo Alto, CA00:00.0 304140  194 
20391.54Michael Miller   Menlo Park, CA00:00.0 220857  162 Metromint Cycling
21400.29Will Brickler   Folsom, CA00:00.0 224302  172 Bicycle Planet
22409.04Max Foorman   Folsom, CA00:00.0 152445  177 Team Bicycles Plus/Sierra Neva
23417.79Curtis Hong   Dublin, CA00:00.0 305875  181 SJBC
24426.54Henry Rabas   West Sacramento, CA00:00.0 28975  153 Team Bicycles Plus/Sierra Neva
25435.29Scot McLean   Sananselmo, CA00:00.0 304846  189 IronDataThirstyBearCycling.com
26444.04Mackenzie Kelly   Santa Cruz, CA00:00.0 286297  161 Spokesman
27452.79Mike Gonzales   San Mateo, CA00:00.0 205006  178 Davis Bike Club Race Team
28461.54Matt Abbott   Santa Rosa, CA00:00.0 260224  169 Red Peloton
29470.29Daniel Murray   San Francisco, CA00:00.0 236403  159 Team Roaring Mouse
30479.04David Doll   Merced, CA00:00.0 281768  154 Topsport
31487.79Kristopher Spyrka   Alamo, CA00:00.0 207144  199 Taleo Racing
32496.54Paul Cook   Lafayette, CA00:00.0 195716  165 Berkeley Bicycle Club (BBC)
DNSKenneth Mejica   San Francisco, CA00:00.0 254913  190 Team Bicycles Plus/Sierra Neva
DNSPetro Hizalev   Palo Alto00:00.0 224168  180 Webcor/Alto Velo
DNPLuciano Sponza   Mill Valley, CA00:00.0 245266  198 Davis Bike Club
DNPAndreas Schulten   Cameron Park, CA00:00.0 248096  196 Bicycle Planet
DNPChris Parod   Mather, CA00:00.0 270992  193 Team Bicycles Plus/Sierra Neva
DNPMatt McKinzie   San Francisco, CA00:00.0 306438  188 Team Mike's Bikes
DNPSean McDonald   Wallace, CA00:00.0 262357  187 Pacific State Bank Cycling Tea
DNPAlex Lugosch   Sanfrancisco, CA00:00.0 281513  184 NA
DNPShon Grabbe   San Jose, CA00:00.0 141499  179 SJBC
DNPScott Cox   El Sobrante, CA00:00.0 288732  174 Taleo Racing
DNPChris Becker   Orinda, CA00:00.0 287692  170 Taleo Racing
DNPDenin Sahovic   Sunnyvale, CA00:00.0 271126  167 Squadra Ovest Cycling
DNPAdrien Costa   Los Altos, CA00:00.0 296167  164 SJBC
DNPJustin Leopold   Independence, MO00:00.0 299868  156 Celerity Cycling p/b Brooks Sy
DNPMichael Burrows   San Jose, CA00:00.0 223312  155 

Men - Pro/Cat 1/2

 Place Points NameCity, StateTime USAC #BibTeam
1115.47Stephen Leece (1 - Cat1)   San Luis Obispo, CA00:00.0 282569  69 NOW-MS Society
2124.18Nathaniel Wilson   Boulder, CO00:00.0 207985  98 California Giant Berry Farms/S
3Yury YURCHANKA   00:00.0  99 McGuire Cycling Team
4141.60Evan Huffman   El Dorado Hills, CA00:00.0 256955  89 Cal Giant/Specialized
5150.31Keith Hillier   Millbrae, CA00:00.0 276108  88 Marc Pro - Strava
6159.02Nathaniel English (2 - Cat1)   Berkeley, CA00:00.0 258309  73 Yahoo Cycling Team
7167.73Brandon Franklin (1 - Cat2)   Clovis, CA00:00.0 239689  86 Sierra Pacific Racing
8176.44Michael Jasinski (3 - Cat1)   Rocklin, CA00:00.0 269476  91 Fremont Bank Cycling Team
9185.15James Wingert   San Diego, CA00:00.0 256481  75 Yahoo Cycling Team
10193.86Arthur Rand   Santa Cruz, CA00:00.0 170859  68 Marc Pro - Strava
11202.57Ethan Atkins   San Francisco, CA00:00.0 224998  64 Metromint Cycling
12211.28Ariel Herrmann   San Francisco, CA00:00.0 163046  65 Metromint Cycling
13219.99Steven Smith   Santa Barbara, CA00:00.0 67527  94 Platinum Performance Cycling T
14228.70Stephen O'Mara   San Rafael, CA00:00.0 241392  74 Team Mike's Bikes
15237.41Bradley Gehrig (1 - Pro)   Salt Lake City, UT00:00.0 234987  59 UCI CT: Jamis/Sutter Home
16246.12Frank Spiteri (4 - Cat1)   San Mateo, CA00:00.0 236118  82 Marc Pro - Strava
17254.83Chris Stastny   Vacaville, CA00:00.0 249743  95 California Giant Berry Farms/S
18263.54Benny Breck (2 - Cat2)   Santa Ynez, CA00:00.0 319608  83 Platinum Performance Cycling T
19272.25Cory Greenberg   Simi Valley, CA00:00.0 243988  87 NOW-MS Society
20280.96Nathanael Christensen   Clements, CA00:00.0 239919  76 Michael David Winery Cycling T
21289.67Torey Philipp   El Dorado Hills, CA00:00.0 263055  66 Team Specialized Racing Junior
22298.38Mark Chaisson (3 - Cat2)   Seattle, WA00:00.0 90030  67 Peninsula Velo/Pomodoro
23307.09Elliot Hawkes   Stanford, CA00:00.0 275956  71 Metromint Cycling
DNSPeter Taylor (Cat2)   Walnut Creek, CA00:00.0 219859  96 California Giant Berry Farms/S
DNSSteve Reaney (Cat1)   San Jose, CA00:00.0 133288  92 California Giant Berry Farms/S
DNSTyler Brandt   Vallejo, CA00:00.0 210604  84 California Giant Berry Farms/S
DNPNaoya YOSHIOKA   00:00.0  78 Kyoto Sangyo Univ
DNPKeisuke KIMURA   00:00.0  77 Kyoto Sangyo Univ
DNPBrandon Trafton (Cat1)   Sacramento, CA00:00.0 240033  97 California Giant Berry Farms/S
DNPJustin Rossi   Reno, NV00:00.0 298550  93 Marc Pro - Strava
DNPCharles Hutcheson (Cat1)   Sacramento, CA00:00.0 54686  90 McGuire Cycling Team
DNPJonathan Moskowitz (Cat2)   Benicia, CA00:00.0 213197  81 Taleo Racing
DNPMichael Grundmann   Sunnyvale, CA00:00.0 182738  79 Platinum Performance Cycling T
DNPMatthew Farnham   Santa Rosa, CA00:00.0 211161  72 Team Kaos-Alegent Health
DNPJohn Parson   Covington, LA00:00.0 236117  70 Sierra Pacific Racing
DNPSam Bassetti (Cat1)   San Geronimo, CA00:00.0 237712  63 Firefighters Cycling - Formigl
DNPAlexander Blease (Cat2)   Chico, CA00:00.0 195515  62 Chico Corsa Cycling Club
DNPTodd Stone   Carmichael, CA00:00.0 249318  61 Fremont Bank Cycling Team
DNPLuke Ramseth   Colfax, CA00:00.0 208152  60 Fremont Bank Cycling Team
DNFMichael Taylor (Cat1)   Reno, NV00:00.0 66806  80 Yahoo Cycling Team

Men - Master - 30-99

 Place Points NameCity, StateTime USAC #BibTeam
1324.94Jacob Berkman   San Francisco, CA00:00.0 303643  898 Dolce Vita Cycling
2420.78Jason Arinno   Elk Grove, CA00:00.0 260928  897 Kinetic Cycles/GBI
3516.62AdamVanMinh Martin   Antioch, CA00:00.0 57185  899 Tri Valley Velo

Men - Junior - 15-18

 Place Points NameCity, StateTime USAC #BibTeam
1463.75Robbie Farrens   Stockton, CA00:00.0 289433  576 DJs Excavation
2489.00John Morehouse   Petaluma, CA00:00.0 319366  574 All-Sport Team Swift
3514.25Reginald Trimingham   Santa Cruz, CA00:00.0 357800  579 
4539.50Benjamin Binder   Lodi, CA00:00.0 306714  575 Michael David Winery Cycling T
5564.75John Kewin   Sacramento, CA00:00.0 356915  578 
6590.00Sean Moffitt   Sacramento, CA00:00.0 358169  572 
DNPCameron BEENE   00:00.0  577 
DNPReid Smith   Moraga, CA00:00.0 300086  573 Tieni Duro Junior Cycling Team

Women - Cat1/2/3

 Place Points NameCity, StateTime USAC #BibTeam
1219.57Anne Fulton   Palo Alto, CA00:00.0 275624  394 Metromint Cycling
2229.98Jane Despas   Menlo Park, CA00:00.0 105201  385 Yahoo
3240.39Fiona Strouts   Menlo Park, CA00:00.0 338404  388 
4250.80Rebecca Rising (1 - Cat2)   Yosemite, CA00:00.0 197841  380 Metromint Cycling
5261.21Johanna Trueblood   Davis, CA00:00.0 301301  399 Davis Bike Club
6271.62susannah breen   Pleasant Hill, CA00:00.0 251128  393 Fremont Bank Cycling Team
7282.03Joanna Bechtel   Oakland, CA00:00.0 272856  392 Sycomp Racing
8292.44Jennie Phillips   Danville, CA00:00.0 203722  389 Wells Fargo Racing Team
9302.85Holly Liske (2 - Cat2)   Stanford, CA00:00.0 190109  387 Webcor/Alto Velo
10313.26Leah Toeniskoetter   Sanjose, CA00:00.0 281828  398 Team TIBCO II
11323.67Michelle Melka   Baltimore, MD00:00.0 302454  397 RED Racing
12334.08Helen Casabona   La Honda, CA00:00.0 265260  386 Peninsula Velo/Pomodoro
13344.49holly breck   Santa Ynez, CA00:00.0 317802  390 Platinum Performance Cycling T
14354.90Heather Nielson   Seattle, WA00:00.0 237346  382 Touchstone Climbing
15365.31Elise Hazlewood   San Francisco, CA00:00.0 303926  381 Dolce Vita Cycling
16375.72Birgit Cory (1 - Cat3)   San Francisco, CA00:00.0 224694  384 Third Pillar
DNSAnna Barensfeld   Ellwood City Pa00:00.0 234148  391 Missing Link Coaching Systems/
DNPMary Magnani   San Francisco, CA00:00.0 257717  396 Red Racing
DNPJennifer Kalich   Aromas00:00.0 297754  395 Cal Giant Cycling Team
DNPCheryl Shwe   San Francisco, CA00:00.0 271152  383 Red Racing

Women - Cat 4

 Place Points NameCity, StateTime USAC #BibTeam
1460.99Nicole Reagan   Redwood City, CA00:00.0 333122  699 Peninsula Velo/Pomodoro
2Rachel MAH   00:00.0  695 
3519.71Kim Bruce   Danville, CA00:00.0 332956  696 C4 Wells Fargo
4549.07Claire Morgan   Gold River, CA00:00.0 335402  692 
5578.43Shannon Mitchell   Santa Rosa, CA00:00.0 307520  694 Red Peloton
DNSErica Mikesh   Santa Rosa, CA00:00.0 253972  698 Precision Stone Racing
DNPKate Dougherty   00:00.0  693 Tri Valley Velo
DNPHeather McDonald   San Francisco, CA00:00.0 307890  697 Metromint Cycling

Women - Master - 30-99

 Place Points NameCity, StateTime USAC #BibTeam
1379.92Lauraleen Fenech   San Francisco, CA00:00.0 224272  597 los gatos
2431.78Jennifer Wong   Oakland, CA00:00.0 80924  599 IronData Thirsty Bear
3483.64Joanne Thompson (1 - Cat3)   Aptos, CA00:00.0 47791  594 Bike Station Aptos
4535.50Sandra King   Livermore, CA00:00.0 291804  598 Team Fremont/FFBC p/b Chipotle
DNPCamille Deluca-Flaherty   Belmont, CA00:00.0 45254  596 Velo Bella

Report missing or incorrect license numbers

Volkswagen
USACDFSierra NevadaBonk BreakerShimanoSpy
UCI USA Cycling is the official governing body for all disciplines of competitive cycling in the United States. The 501c3, membership-based organization aims both to achieve sustained success in international cycling competition and to grow competitive cycling in America while delivering an exceptional customer experience.
View Children's Online Privacy Protection Policy
US Olympic Committee